Location: Buisson
(44.2787°N, 4.9969°E)
Time: 06:43:45
(UTC+00:00)

SJ 16-02 - Pass Details

Date: 18 April 2021
Orbit: 605 x 617 km, 75.0° (Epoch: 05 May)

Event Time Altitude Azimuth Distance (km) Brightness Sun altitude
Exits shadow 02:55:20 20° 294° (WNW) 1,434 3.0 -19.3°
Maximum altitude 02:55:43 20° 302° (WNW) 1,426 3.0 -19.2°
Drops below altitude 10° 02:59:01 10° 350° (N) 1,986 4.3 -18.7°
Sets 03:01:48 0° 7° (N) 2,898 5.5 -18.3°
